TimeEDT,TemperatureF,Dew PointF,Humidity,Sea Level PressureIn,VisibilityMPH,Wind Direction,Wind SpeedMPH,Gust SpeedMPH,PrecipitationIn,Events,Conditions,WindDirDegrees,DateUTC
12:15 AM,64.4,64.4,100,30.05,7.0,Calm,Calm,-,N/A,Rain,Rain,0,2014-03-29 04:15:00
12:35 AM,64.4,64.4,100,30.05,7.0,SSE,3.5,-,0.01,,Drizzle,150,2014-03-29 04:35:00
12:55 AM,64.4,64.4,100,30.04,7.0,SE,3.5,-,0.01,Rain,Light Rain,140,2014-03-29 04:55:00
1:15 AM,64.4,64.4,100,30.03,7.0,South,5.8,-,N/A,Rain,Light Rain,180,2014-03-29 05:15:00
1:35 AM,64.4,64.4,100,30.03,7.0,South,8.1,-,N/A,Rain,Light Rain,190,2014-03-29 05:35:00
1:55 AM,64.4,64.4,100,30.03,7.0,SSW,4.6,-,N/A,Rain,Rain,200,2014-03-29 05:55:00
2:15 AM,62.6,62.6,100,30.03,5.0,SSW,3.5,-,N/A,,Drizzle,210,2014-03-29 06:15:00
2:35 AM,62.6,62.6,100,30.02,5.0,Calm,Calm,-,N/A,Rain,Rain,0,2014-03-29 06:35:00
2:55 AM,62.6,62.6,100,30.02,4.0,SSW,3.5,-,N/A,Rain,Light Rain,210,2014-03-29 06:55:00
3:15 AM,62.6,62.6,100,30.01,5.0,Calm,Calm,-,N/A,Rain,Rain,0,2014-03-29 07:15:00
3:35 AM,62.6,62.6,100,29.99,4.0,Calm,Calm,-,N/A,Rain,Rain,0,2014-03-29 07:35:00
3:55 AM,62.6,62.6,100,29.98,1.2,Calm,Calm,-,N/A,Rain,Rain,0,2014-03-29 07:55:00
4:15 AM,62.6,62.6,100,29.97,3.0,Calm,Calm,-,N/A,Rain,Rain,0,2014-03-29 08:15:00
4:35 AM,64.4,64.4,100,29.96,5.0,South,3.5,-,N/A,Rain,Rain,180,2014-03-29 08:35:00
4:55 AM,64.4,64.4,100,29.96,10.0,South,3.5,-,N/A,,Light Drizzle,170,2014-03-29 08:55:00
5:15 AM,64.4,64.4,100,29.95,10.0,Calm,Calm,-,N/A,Rain,Light Rain,0,2014-03-29 09:15:00
5:35 AM,64.4,64.4,100,29.94,7.0,South,5.8,-,N/A,Rain,Rain,180,2014-03-29 09:35:00
5:55 AM,64.4,64.4,100,29.93,5.0,SSE,3.5,-,N/A,Rain,Rain,150,2014-03-29 09:55:00
6:15 AM,64.4,64.4,100,29.94,5.0,South,3.5,-,N/A,,Light Drizzle,190,2014-03-29 10:15:00
6:35 AM,64.4,64.4,100,29.94,7.0,South,5.8,-,N/A,,Overcast,170,2014-03-29 10:35:00
6:55 AM,62.6,62.6,100,29.94,7.0,South,4.6,-,N/A,,Overcast,190,2014-03-29 10:55:00
7:15 AM,62.6,62.6,100,29.95,7.0,SSW,4.6,-,N/A,,Overcast,200,2014-03-29 11:15:00
7:35 AM,62.6,62.6,100,29.96,7.0,South,10.4,-,N/A,,Overcast,190,2014-03-29 11:35:00
7:55 AM,62.6,62.6,100,29.95,7.0,SSW,8.1,-,N/A,,Overcast,200,2014-03-29 11:55:00
8:15 AM,62.6,62.6,100,29.96,5.0,SSW,6.9,-,N/A,,Overcast,210,2014-03-29 12:15:00
8:35 AM,62.6,62.6,100,29.96,5.0,SSW,5.8,-,N/A,,Overcast,210,2014-03-29 12:35:00
8:55 AM,64.4,64.4,100,29.96,4.0,SW,8.1,-,N/A,Rain,Light Rain,220,2014-03-29 12:55:00
9:15 AM,64.4,64.4,100,29.95,5.0,SSW,4.6,-,N/A,,Overcast,210,2014-03-29 13:15:00
9:35 AM,64.4,64.4,100,29.94,5.0,South,5.8,-,N/A,,Overcast,180,2014-03-29 13:35:00
9:55 AM,66.2,66.2,100,29.95,7.0,SW,8.1,-,N/A,,Overcast,220,2014-03-29 13:55:00
10:15 AM,66.2,66.2,100,29.94,10.0,SW,6.9,-,N/A,,Overcast,220,2014-03-29 14:15:00
10:35 AM,68.0,68.0,100,29.93,10.0,WSW,5.8,-,N/A,,Overcast,240,2014-03-29 14:35:00
10:55 AM,69.8,68.0,94,29.91,10.0,SSW,4.6,-,N/A,,Mostly Cloudy,210,2014-03-29 14:55:00
11:15 AM,69.8,68.0,94,29.90,10.0,WSW,4.6,-,N/A,,Overcast,240,2014-03-29 15:15:00
11:35 AM,71.6,68.0,88,29.88,7.0,SW,8.1,-,N/A,,Overcast,230,2014-03-29 15:35:00
11:55 AM,71.6,68.0,88,29.88,10.0,West,8.1,-,N/A,,Overcast,270,2014-03-29 15:55:00
12:15 PM,71.6,68.0,88,29.87,7.0,WSW,9.2,-,N/A,,Mostly Cloudy,240,2014-03-29 16:15:00
12:35 PM,73.4,68.0,83,29.86,7.0,SSW,5.8,-,N/A,,Scattered Clouds,210,2014-03-29 16:35:00
12:55 PM,73.4,66.2,78,29.85,7.0,SW,8.1,-,N/A,,Scattered Clouds,230,2014-03-29 16:55:00
1:15 PM,73.4,66.2,78,29.84,7.0,SSW,3.5,-,N/A,,Scattered Clouds,210,2014-03-29 17:15:00
1:35 PM,73.4,66.2,78,29.82,7.0,South,6.9,-,N/A,,Clear,190,2014-03-29 17:35:00
1:55 PM,71.6,64.4,78,29.81,7.0,SSW,8.1,-,N/A,,Clear,200,2014-03-29 17:55:00
2:15 PM,71.6,64.4,78,29.80,7.0,South,8.1,-,N/A,,Clear,180,2014-03-29 18:15:00
2:35 PM,73.4,64.4,73,29.80,7.0,South,10.4,-,N/A,,Clear,190,2014-03-29 18:35:00
2:55 PM,73.4,64.4,73,29.78,7.0,South,9.2,-,N/A,,Clear,190,2014-03-29 18:55:00
3:15 PM,73.4,64.4,73,29.77,7.0,South,8.1,-,N/A,,Clear,190,2014-03-29 19:15:00
3:35 PM,73.4,64.4,73,29.76,7.0,South,8.1,-,N/A,,Clear,190,2014-03-29 19:35:00
3:55 PM,75.2,64.4,69,29.75,7.0,SSW,9.2,-,N/A,,Clear,200,2014-03-29 19:55:00
4:15 PM,75.2,66.2,73,29.73,5.0,SSW,5.8,-,N/A,,Haze,200,2014-03-29 20:15:00
4:35 PM,73.4,68.0,83,29.73,7.0,SSW,6.9,-,N/A,,Clear,200,2014-03-29 20:35:00
4:55 PM,73.4,66.2,78,29.72,7.0,South,6.9,-,N/A,,Scattered Clouds,190,2014-03-29 20:55:00
5:15 PM,73.4,68.0,83,29.71,7.0,South,5.8,-,N/A,,Mostly Cloudy,190,2014-03-29 21:15:00
5:35 PM,73.4,68.0,83,29.72,5.0,South,8.1,-,N/A,,Haze,190,2014-03-29 21:35:00
5:55 PM,73.4,66.2,78,29.71,7.0,South,8.1,-,N/A,,Clear,190,2014-03-29 21:55:00
6:15 PM,71.6,64.4,78,29.71,7.0,SSW,9.2,-,N/A,,Scattered Clouds,200,2014-03-29 22:15:00
6:35 PM,71.6,64.4,78,29.72,5.0,South,6.9,-,N/A,,Haze,190,2014-03-29 22:35:00
6:55 PM,71.6,64.4,78,29.73,7.0,South,8.1,-,N/A,,Mostly Cloudy,190,2014-03-29 22:55:00
7:15 PM,69.8,62.6,78,29.73,7.0,South,6.9,-,N/A,,Scattered Clouds,190,2014-03-29 23:15:00
7:35 PM,68.0,62.6,83,29.73,7.0,South,4.6,-,N/A,,Scattered Clouds,190,2014-03-29 23:35:00
7:55 PM,68.0,62.6,83,29.73,7.0,South,5.8,-,N/A,,Mostly Cloudy,190,2014-03-29 23:55:00
8:15 PM,68.0,60.8,78,29.73,7.0,SW,6.9,-,N/A,,Scattered Clouds,230,2014-03-30 00:15:00
8:35 PM,71.6,59.0,64,29.75,7.0,West,18.4,24.2,N/A,,Scattered Clouds,260,2014-03-30 00:35:00
8:55 PM,71.6,59.0,64,29.75,7.0,WSW,20.7,24.2,N/A,,Scattered Clouds,250,2014-03-30 00:55:00
9:15 PM,69.8,57.2,64,29.76,7.0,WSW,17.3,21.9,N/A,,Clear,250,2014-03-30 01:15:00
9:35 PM,69.8,55.4,60,29.77,7.0,West,20.7,27.6,N/A,,Clear,260,2014-03-30 01:35:00
9:55 PM,69.8,55.4,60,29.77,10.0,West,10.4,-,N/A,,Scattered Clouds,260,2014-03-30 01:55:00
10:15 PM,68.0,55.4,64,29.77,10.0,WSW,12.7,-,N/A,,Scattered Clouds,250,2014-03-30 02:15:00
10:35 PM,68.0,55.4,64,29.77,10.0,West,16.1,23.0,N/A,,Clear,260,2014-03-30 02:35:00
10:55 PM,68.0,57.2,68,29.77,10.0,WSW,16.1,21.9,N/A,,Clear,250,2014-03-30 02:55:00
11:15 PM,66.2,55.4,68,29.77,10.0,West,21.9,29.9,N/A,,Clear,260,2014-03-30 03:15:00
11:35 PM,66.2,55.4,68,29.78,10.0,West,26.5,34.5,N/A,,Scattered Clouds,270,2014-03-30 03:35:00
11:55 PM,62.6,51.8,68,29.79,10.0,West,20.7,35.7,N/A,,Scattered Clouds,280,2014-03-30 03:55:00